[[{"header":{"parameterUnit":"m.s-1","parameterCategory":1,"la1":30.2991,"la2":30.254,"lo1":-89.0895,"lo2":-89.0444,"dy":0.0017,"dx":0.0017,"nx":28,"ny":28,"refTime":"2026-01-31T03:00:00:Z","depth":0,"parameterNumber":2,"parameterNumberName":"U-component_of_WINDS"},"data":[0,0,0,0,0,0,0,0,0,0,0,0,0,0,0,0,0,0,0,0,0,0,0,0,0,0,0,0,0,0,0,0,0,0,0,0,0,0,0,0,0,0,0,0,0,0,0,0,0,0,0,0,0,0,0,0,0,0,5.8721,5.8722,0,5.8804,5.8805,5.8806,5.8752,5.8749,5.8747,5.8744,5.8827,5.8831,5.8836,0,0,0,0,0,0,0,0,0,0,0,0,0,5.8515,5.8519,5.8721,5.8722,5.8723,5.8804,5.8805,5.8806,5.8752,5.8749,5.8746,5.8743,5.8826,5.8831,5.8836,0,0,0,0,0,0,0,0,0,0,0,0,0,5.8602,5.852,5.872,5.8706,5.8705,5.8803,5.8805,5.8806,5.8753,5.8749,5.8745,5.8742,5.8824,5.883,5.8837,5.8954,0,0,5.8858,5.8861,0,0,0,0,0,0,0,0,5.8597,5.8609,5.8707,5.8707,5.8706,5.8764,5.8762,5.8856,5.8754,5.8735,5.8744,5.874,5.8809,5.8817,5.884,5.8958,5.8961,5.8858,5.8863,5.8866,5.8867,0,0,0,0,0,0,0,5.8591,5.8605,5.8753,5.8708,5.8708,5.8695,5.8703,5.878,5.8792,5.8736,5.8732,5.8743,5.8808,5.8834,5.8842,5.8963,5.8858,5.8864,5.8869,5.8871,5.9183,5.9187,0,0,0,0,0,0,5.8586,5.8601,5.8751,5.8756,5.8641,5.8701,5.8711,5.8749,5.8791,5.8793,5.8746,5.874,5.8824,5.8834,5.8845,5.8986,5.8865,5.8872,5.8876,5.9178,5.9184,5.9188,0,0,0,0,0,0,5.8582,5.86,5.8747,5.8677,5.8695,5.8709,5.8752,5.8753,5.8778,5.8798,5.88,5.877,5.8822,5.8835,5.8928,5.8988,5.8875,5.8881,5.9173,5.918,5.9186,5.9268,0,0,0,0,0,0,5.8576,5.8599,5.8643,5.8679,5.8699,5.883,5.8756,5.8757,5.8791,5.8784,5.8822,5.8824,5.882,5.8918,5.8935,5.8995,5.8886,5.9168,5.9176,5.9184,5.926,5.9276,5.929,0,0,0,0,0,5.8569,5.8662,5.8646,5.8664,5.8755,5.8833,5.8845,5.8838,5.8796,5.8841,5.8854,5.8823,5.8979,5.8928,5.8946,5.9009,5.9164,5.9174,5.9183,5.9253,5.9273,5.929,0,0,0,0,0,0,5.8631,5.8666,5.8649,5.8756,5.8792,5.8824,5.888,5.8859,5.8907,5.8899,5.8888,5.8897,5.8995,5.9011,5.8954,5.9126,5.9065,5.9078,5.9111,5.9131,5.9145,5.9139,5.8892,0,0,0,0,0,5.8658,5.8719,5.8746,5.8838,5.8857,5.8866,5.89,5.8892,5.8929,5.8943,5.8963,5.9,5.9057,5.9095,5.9148,5.9262,5.927,5.9315,5.933,5.9342,5.9354,5.9417,5.9438,5.9219,5.9219,5.9219,0,0,5.8713,5.8739,5.8778,5.8851,5.8878,5.8942,5.8879,5.8948,5.8995,5.8953,5.9043,5.9059,5.9099,5.9204,5.9251,5.9221,5.9417,5.9354,5.9364,5.9369,5.9429,5.945,5.9468,5.9225,5.9224,5.9223,0,0,5.8845,5.8871,5.8952,5.8981,5.9024,5.9029,5.9049,5.9085,5.9094,5.9184,5.9155,5.9211,5.9309,5.934,5.9368,5.9516,5.949,5.9533,5.9612,5.9674,5.9691,5.9707,5.976,5.978,5.9545,5.9545,5.9545,0,5.8908,5.9003,5.8995,5.9068,5.9102,5.9069,5.9151,5.9179,5.9237,5.9261,5.9226,5.9351,5.9375,5.9488,5.9524,5.9548,5.957,5.9529,5.969,5.9705,5.9719,5.977,5.979,5.955,5.955,5.9549,5.9549,0,5.9078,5.9145,5.9204,5.9263,5.9303,5.938,5.9385,5.9427,5.9416,5.9426,5.9519,5.9548,5.9607,5.9633,5.9623,5.9745,5.9725,5.9691,5.9629,5.9745,5.9793,5.9812,5.9558,5.9556,5.9554,5.9553,0,0,5.925,5.9306,5.9328,5.9355,5.9401,5.9453,5.9529,5.9589,5.9625,5.9667,5.9731,5.9816,5.9785,5.9818,5.9811,5.9865,5.9982,5.9824,5.9825,5.9853,6.012,6.0146,6.0169,5.9966,5.9969,5.9972,6.0117,0,5.9386,5.9519,5.9517,5.964,5.9703,5.9674,5.974,5.9776,5.9787,5.9842,5.9854,5.9916,5.987,5.9889,5.9942,5.9957,6.0036,5.9946,6.0025,6.0028,6.0016,6.0193,6.022,6.0355,6.0135,6.0139,6.0141,0,5.9562,5.9611,5.9742,5.9781,5.9807,5.9867,5.9923,5.9975,6.0016,6.002,6.0059,6.0044,6.0121,6.0058,6.0166,6.0105,6.0138,6.015,6.0155,6.0162,6.0091,6.0205,6.0398,6.0419,6.017,6.0168,6.0166,0,5.9676,5.9775,5.9866,5.989,5.9938,5.9981,6.0003,6.004,6.0077,6.0126,6.015,6.0207,6.0238,6.0283,6.0284,6.0238,6.0393,6.033,6.04,6.04,6.0433,6.0431,6.0634,6.0454,6.0454,6.0453,6.0453,0,5.9828,5.9909,5.9919,5.9975,6.0066,6.0062,6.0152,6.0169,6.0203,6.0263,6.0241,6.0297,6.0295,6.0353,6.0354,6.0444,6.0458,6.0464,6.0464,6.0466,6.0466,6.0487,6.0478,6.0459,6.0458,6.0456,6.0456,0,5.9969,5.9979,6.0077,6.0116,6.0127,6.0193,6.0225,6.0279,6.029,6.0365,6.0383,6.0399,6.0466,6.0472,6.0549,6.055,6.0659,6.0648,6.0646,6.0644,6.0714,6.0708,6.0938,6.0968,6.0768,6.077,6.0772,0,6.0066,6.0128,6.0174,6.0213,6.0238,6.03,6.0339,6.0338,6.0379,6.0432,6.048,6.0544,6.0596,6.0704,6.0723,6.0782,6.0773,6.085,6.0781,6.0783,6.0775,6.0771,6.0778,6.0863,6.0865,6.0867,6.0868,0,6.0236,6.0239,6.0295,6.0355,6.0402,6.0448,6.0491,6.0524,6.0529,6.0576,6.0645,6.0686,6.0766,6.0831,6.089,6.0912,6.0892,6.089,6.0909,6.0912,6.0909,6.0913,6.0682,6.0884,6.0883,6.0881,6.0881,6.088,6.0359,6.0414,6.0455,6.052,6.0553,6.0594,6.0648,6.0666,6.0724,6.0789,6.0786,6.0862,6.0903,6.098,6.1007,6.1067,6.1041,6.1069,6.1076,6.1083,6.1091,6.09,6.1077,6.1077,6.1076,6.1076,6.1076,0,6.0529,6.0555,6.0614,6.0677,6.0728,6.0706,6.0753,6.0797,6.0865,6.0905,6.0958,6.1038,6.1102,6.1126,6.1189,6.1232,6.1225,6.1249,6.1245,6.1251,6.111,6.1087,6.1254,6.1254,6.1254,6.1254,6.1254,6.1254,6.0624,6.0716,6.0724,6.0832,6.0857,6.0933,6.0962,6.1001,6.1033,6.1124,6.1178,6.1194,6.1228,6.1294,6.1351,6.1357,6.1381,6.141,6.1412,6.1279,6.1261,6.1244,6.1222,6.1415,6.1415,6.1548,6.1549,6.155]},{"header":{"parameterUnit":"m.s-1","parameterCategory":1,"la1":30.2991,"la2":30.254,"lo1":-89.0895,"lo2":-89.0444,"dy":0.0017,"dx":0.0017,"nx":28,"ny":28,"refTime":"2026-01-31T03:00:00:Z","depth":0,"parameterNumber":3,"parameterNumberName":"V-component_of_WINDS"},"data":[0,0,0,0,0,0,0,0,0,0,0,0,0,0,0,0,0,0,0,0,0,0,0,0,0,0,0,0,0,0,0,0,0,0,0,0,0,0,0,0,0,0,0,0,0,0,0,0,0,0,0,0,0,0,0,0,0,0,-9.6632,-9.6634,0,-9.6814,-9.6816,-9.6818,-9.6772,-9.6769,-9.6765,-9.6762,-9.6943,-9.6951,-9.6959,0,0,0,0,0,0,0,0,0,0,0,0,0,-9.6239,-9.6247,-9.6631,-9.6634,-9.6636,-9.6814,-9.6816,-9.6819,-9.6773,-9.6769,-9.6764,-9.676,-9.694,-9.695,-9.696,0,0,0,0,0,0,0,0,0,0,0,0,0,-9.6414,-9.6249,-9.6631,-9.6635,-9.6637,-9.6813,-9.6816,-9.682,-9.6774,-9.6769,-9.6763,-9.6758,-9.6937,-9.6949,-9.6961,-9.7143,0,0,-9.6998,-9.7004,0,0,0,0,0,0,0,0,-9.6405,-9.6429,-9.6632,-9.6635,-9.6638,-9.6765,-9.6744,-9.6928,-9.6775,-9.6722,-9.6762,-9.6756,-9.6888,-9.6904,-9.6949,-9.7152,-9.7159,-9.6999,-9.7007,-9.7012,-9.7016,0,0,0,0,0,0,0,-9.6392,-9.6421,-9.6704,-9.6635,-9.6638,-9.6626,-9.6645,-9.6779,-9.6832,-9.6726,-9.6723,-9.6746,-9.6888,-9.6938,-9.6953,-9.7162,-9.6999,-9.701,-9.7017,-9.7022,-9.7525,-9.7531,0,0,0,0,0,0,-9.6379,-9.6411,-9.6698,-9.6709,-9.6506,-9.6637,-9.6659,-9.673,-9.6831,-9.6841,-9.675,-9.6743,-9.692,-9.6939,-9.696,-9.7181,-9.7012,-9.7023,-9.703,-9.7519,-9.7526,-9.7533,0,0,0,0,0,0,-9.637,-9.6405,-9.669,-9.6559,-9.6595,-9.665,-9.673,-9.6736,-9.6786,-9.6849,-9.6858,-9.6791,-9.6916,-9.6942,-9.7099,-9.7187,-9.7029,-9.704,-9.7512,-9.7521,-9.753,-9.7625,0,0,0,0,0,0,-9.6359,-9.6402,-9.6473,-9.6561,-9.6602,-9.6828,-9.6735,-9.6743,-9.6807,-9.68,-9.689,-9.69,-9.6914,-9.7081,-9.7111,-9.7201,-9.705,-9.7504,-9.7516,-9.7527,-9.7614,-9.7636,-9.7655,0,0,0,0,0,-9.6346,-9.649,-9.6476,-9.6511,-9.6692,-9.6833,-9.6856,-9.6872,-9.6815,-9.6886,-9.6927,-9.6897,-9.7172,-9.7097,-9.7131,-9.7225,-9.7499,-9.7513,-9.7526,-9.7605,-9.7632,-9.7654,0,0,0,0,0,0,-9.6408,-9.6502,-9.6488,-9.6666,-9.6742,-9.6825,-9.6915,-9.6899,-9.6992,-9.698,-9.6993,-9.7014,-9.7174,-9.7215,-9.713,-9.7408,-9.7327,-9.7348,-9.7376,-9.7402,-9.7422,-9.7408,-9.706,0,0,0,0,0,-9.6443,-9.6552,-9.6627,-9.6777,-9.6816,-9.686,-9.6922,-9.6927,-9.7006,-9.7037,-9.709,-9.7166,-9.727,-9.7338,-9.7437,-9.762,-9.7639,-9.7701,-9.7722,-9.7738,-9.7756,-9.7857,-9.7886,-9.7577,-9.7577,-9.7577,0,0,-9.6515,-9.658,-9.6647,-9.6791,-9.6851,-9.6963,-9.6887,-9.7007,-9.709,-9.7055,-9.7207,-9.7248,-9.7334,-9.7505,-9.7583,-9.7544,-9.7846,-9.7755,-9.7768,-9.7777,-9.7874,-9.7904,-9.793,-9.7587,-9.7585,-9.7583,0,0,-9.6705,-9.6764,-9.6897,-9.6959,-9.7052,-9.708,-9.7112,-9.7199,-9.7226,-9.7379,-9.7356,-9.7453,-9.7631,-9.7694,-9.775,-9.7966,-9.7942,-9.7997,-9.8103,-9.8202,-9.8227,-9.8248,-9.8326,-9.8354,-9.8015,-9.8015,-9.8015,0,-9.6782,-9.6951,-9.6966,-9.7091,-9.7155,-9.7131,-9.7265,-9.7324,-9.7444,-9.7488,-9.7443,-9.7669,-9.7724,-9.7911,-9.7964,-9.8009,-9.8046,-9.7987,-9.8222,-9.8244,-9.8264,-9.8339,-9.8368,-9.8021,-9.8021,-9.802,-9.8019,0,-9.7043,-9.716,-9.7256,-9.7375,-9.745,-9.7578,-9.7612,-9.7686,-9.7685,-9.7718,-9.7875,-9.7942,-9.8055,-9.8099,-9.8098,-9.8286,-9.826,-9.8219,-9.8137,-9.83,-9.837,-9.8399,-9.803,-9.8028,-9.8026,-9.8025,0,0,-9.7275,-9.7404,-9.7439,-9.7493,-9.7595,-9.7685,-9.7812,-9.7926,-9.7989,-9.8072,-9.8179,-9.8332,-9.8296,-9.8359,-9.8365,-9.8451,-9.862,-9.84,-9.8402,-9.8439,-9.8833,-9.8864,-9.8896,-9.8605,-9.8611,-9.8615,-9.8826,0,-9.7475,-9.7702,-9.772,-9.7924,-9.8033,-9.8013,-9.8124,-9.8197,-9.8232,-9.8328,-9.8365,-9.8474,-9.8417,-9.8455,-9.854,-9.8582,-9.8699,-9.8567,-9.8704,-9.8709,-9.8684,-9.8933,-9.8966,-9.9162,-9.8853,-9.8858,-9.8861,0,-9.7737,-9.7832,-9.8047,-9.8136,-9.8182,-9.8282,-9.8388,-9.8481,-9.8564,-9.8583,-9.8655,-9.865,-9.878,-9.8695,-9.8874,-9.8784,-9.8841,-9.887,-9.8878,-9.8892,-9.8795,-9.8954,-9.9224,-9.9254,-9.8905,-9.8901,-9.8898,0,-9.7887,-9.8068,-9.8221,-9.8268,-9.8374,-9.8445,-9.8493,-9.8571,-9.8638,-9.873,-9.8774,-9.8879,-9.8937,-9.9018,-9.9042,-9.8977,-9.9221,-9.9137,-9.924,-9.924,-9.9293,-9.9289,-9.9577,-9.9329,-9.9328,-9.9328,-9.9327,0,-9.8108,-9.8241,-9.829,-9.8384,-9.8532,-9.8552,-9.8698,-9.8741,-9.8811,-9.8913,-9.89,-9.8995,-9.902,-9.912,-9.9139,-9.9286,-9.9311,-9.933,-9.9333,-9.9332,-9.9329,-9.937,-9.9357,-9.9336,-9.9334,-9.9332,-9.9331,0,-9.8301,-9.8339,-9.8504,-9.8593,-9.8618,-9.8724,-9.8799,-9.8889,-9.8922,-9.9051,-9.9082,-9.9133,-9.925,-9.9282,-9.9421,-9.9433,-9.9607,-9.9597,-9.958,-9.958,-9.9681,-9.9672,-10.0005,-10.005,-9.9772,-9.9775,-9.9777,0,-9.844,-9.8542,-9.8642,-9.8711,-9.8762,-9.8871,-9.8941,-9.8965,-9.9037,-9.9142,-9.9219,-9.9335,-9.9429,-9.9617,-9.9666,-9.9772,-9.9765,-9.9875,-9.9781,-9.9777,-9.9768,-9.9762,-9.9773,-9.9893,-9.9896,-9.9898,-9.99,0,-9.8683,-9.8697,-9.8799,-9.8909,-9.8993,-9.908,-9.9163,-9.9219,-9.9254,-9.9337,-9.9458,-9.9531,-9.9674,-9.979,-9.9898,-9.9945,-9.9929,-9.9929,-9.9959,-9.9958,-9.9945,-9.9955,-9.9629,-9.9921,-9.9919,-9.9918,-9.9917,-9.9916,-9.8854,-9.8944,-9.903,-9.9145,-9.921,-9.9289,-9.9379,-9.9425,-9.9526,-9.9647,-9.9654,-9.9785,-9.9867,-10.0011,-10.0065,-10.0167,-10.0134,-10.0176,-10.0188,-10.0198,-10.0208,-9.9928,-10.0186,-10.0186,-10.0185,-10.0185,-10.0184,0,-9.9097,-9.9152,-9.9257,-9.9376,-9.9466,-9.9445,-9.9536,-9.9613,-9.973,-9.9808,-9.9902,-10.0041,-10.0153,-10.0212,-10.0324,-10.0394,-10.039,-10.0423,-10.0418,-10.043,-10.023,-10.0194,-10.0425,-10.0425,-10.0425,-10.0425,-10.0425,-10.0425,-9.9235,-9.9388,-9.9413,-9.9598,-9.9652,-9.9782,-9.9836,-9.9909,-9.9972,-10.0129,-10.0223,-10.0262,-10.0333,-10.045,-10.0552,-10.0566,-10.0608,-10.0645,-10.0655,-10.0468,-10.0443,-10.042,-10.0386,-10.0654,-10.0654,-10.0847,-10.0849,-10.085]}]]